, FL

(GMT )
Crestview

Weather History for KEGI - February, 2013

Change the Weather History Date:

Tuesday, February 26, 2013

  Actual Average Record
Temperature  
Mean Temperature 58 °F -  
Max Temperature 66 °F - - ()
Min Temperature 50 °F - - ()
Degree Days  
Heating Degree Days 6    
Growing Degree Days 8 (Base 50)    
Moisture  
Dew Point 53 °F    
Average Humidity 78    
Maximum Humidity 100    
Minimum Humidity 49    
Precipitation  
Precipitation 0.55 in - - ()
Sea Level Pressure  
Sea Level Pressure 29.66 in    
Wind  
Wind Speed 12 mph (SW)    
Max Wind Speed 21 mph    
Max Gust Speed 26 mph    
Visibility 9 miles    
Events Rain    
Averages and records for this station are not official NWS values.
T = Trace of Precipitation, MM = Missing Value Source: NWS Daily Summary

Daily Weather History Graph

Daily Weather History Graph

Search for Another Location

Airport or City:

Trip Planner

Search our weather history database for the weather conditions in past years. The results will help you decide how hot, cold, wet, or windy it might be!

Date:

Astronomy

Feb. 26, 2013 Rise Set
Actual Time 6:15 AM CST 5:42 PM CST
Civil Twilight 5:51 AM CST 6:07 PM CST
Nautical Twilight 5:23 AM CST 6:35 PM CST
Astronomical Twilight 4:55 AM CST 7:02 PM CST
Moon 6:49 PM CST (2/26) 6:24 AM CST (2/26)
Length of Visible Light 12h 15m
Length of Day
11h 27m
Full, 99% of the Moon is Illuminated
Feb 26
Full
Mar 4
Last Quarter
Mar 11
New
Mar 19
First Quarter
Mar 27
Full

Hourly Weather History & Observations

Time (CST) Temp. Dew Point Humidity Pressure Visibility Wind Dir Wind Speed Gust Speed Precip Events Conditions
12:21 AM 66.2 °F 66.2 °F 100% 29.53 in 7.0 mi SE 13.8 mph 24.2 mph N/A Rain Rain
12:56 AM 66.2 °F 66.2 °F 100% 29.54 in 2.5 mi South 16.1 mph - N/A Rain Heavy Rain
12:58 AM 66.2 °F 66.2 °F 100% 29.54 in 2.5 mi South 16.1 mph - 0.35 in Rain Heavy Rain
1:03 AM 66.2 °F 66.2 °F 100% 29.54 in 3.0 mi South 12.7 mph - N/A Rain Heavy Rain
1:28 AM 66.2 °F 66.2 °F 100% 29.53 in 5.0 mi SSW 8.1 mph - N/A Rain Rain
1:35 AM 66.2 °F 66.2 °F 100% 29.54 in 10.0 mi SSW 8.1 mph - N/A   Mostly Cloudy
1:40 AM 66.2 °F 66.2 °F 100% 29.54 in 10.0 mi SSW 6.9 mph - N/A   Mostly Cloudy
1:55 AM 66.2 °F 66.2 °F 100% 29.54 in 10.0 mi SW 5.8 mph - N/A   Mostly Cloudy
1:58 AM 66.2 °F 66.0 °F 99% 29.54 in 10.0 mi SW 4.6 mph - 0.20 in   Mostly Cloudy
2:33 AM 66.2 °F 66.2 °F 100% 29.52 in 10.0 mi SSW 8.1 mph - N/A   Mostly Cloudy
2:43 AM 66.2 °F 66.2 °F 100% 29.53 in 10.0 mi WSW 10.4 mph - N/A   Scattered Clouds
2:55 AM 66.2 °F 64.4 °F 94% 29.53 in 10.0 mi WSW 15.0 mph 19.6 mph N/A   Mostly Cloudy
2:58 AM 66.0 °F 65.1 °F 97% 29.53 in 10.0 mi WSW 12.7 mph 19.6 mph N/A   Mostly Cloudy
3:58 AM 62.4 °F 56.3 °F 80% 29.56 in 10.0 mi WSW 8.1 mph - N/A   Mostly Cloudy
4:58 AM 59.7 °F 52.5 °F 77% 29.59 in 10.0 mi WSW 8.1 mph - N/A   Mostly Cloudy
5:58 AM 57.6 °F 48.9 °F 73% 29.60 in 10.0 mi SW 10.4 mph - N/A   Clear
6:58 AM 56.7 °F 47.3 °F 71% 29.64 in 10.0 mi SW 11.5 mph - N/A   Clear
7:58 AM 58.1 °F 46.0 °F 64% 29.67 in 10.0 mi SW 15.0 mph 18.4 mph N/A   Clear
8:55 AM 57.9 °F 44.6 °F 61% 29.70 in 10.0 mi WSW 8.1 mph - N/A   Mostly Cloudy
9:55 AM 59.9 °F 43.0 °F 54% 29.71 in 10.0 mi SW 20.7 mph 26.5 mph N/A   Mostly Cloudy
10:55 AM 60.6 °F 44.4 °F 55% 29.72 in 10.0 mi SW 15.0 mph 23.0 mph N/A   Partly Cloudy
11:56 AM 61.5 °F 44.2 °F 53% 29.72 in 10.0 mi SW 15.0 mph 21.9 mph N/A   Partly Cloudy
12:55 PM 61.0 °F 42.3 °F 50% 29.72 in 10.0 mi WSW 19.6 mph 24.2 mph N/A   Partly Cloudy
1:55 PM 61.2 °F 41.7 °F 49% 29.72 in 10.0 mi WSW 13.8 mph 23.0 mph N/A   Partly Cloudy
2:55 PM 61.0 °F 41.9 °F 49% 29.71 in 10.0 mi SW 12.7 mph - N/A   Mostly Cloudy
3:55 PM 57.0 °F 43.9 °F 61% 29.74 in 10.0 mi WSW 16.1 mph - N/A   Mostly Cloudy
4:55 PM 55.4 °F 43.5 °F 64% 29.76 in 10.0 mi SW 11.5 mph - N/A   Mostly Cloudy
5:55 PM 54.0 °F 43.3 °F 67% 29.79 in 10.0 mi WSW 8.1 mph - N/A   Mostly Cloudy
6:55 PM 53.2 °F 42.8 °F 68% 29.81 in 10.0 mi WSW 8.1 mph - N/A   Mostly Cloudy
7:55 PM 52.5 °F 42.8 °F 70% 29.85 in 10.0 mi WSW 5.8 mph - N/A   Mostly Cloudy
8:55 PM 52.2 °F 42.6 °F 70% 29.88 in 10.0 mi WSW 6.9 mph - N/A   Mostly Cloudy
9:55 PM 51.8 °F 42.6 °F 71% 29.90 in 10.0 mi West 5.8 mph - N/A   Mostly Cloudy
10:55 PM 51.3 °F 42.8 °F 73% 29.91 in 10.0 mi WNW 5.8 mph - N/A   Mostly Cloudy
11:55 PM 50.5 °F 42.6 °F 74% 29.91 in 10.0 mi WNW 6.9 mph - N/A   Mostly Cloudy